#timestamp,LO_Frequency,Hit,StdDev 
1544936415.1,286047002.2,N
1544936435.9,286047002.5,N
1544936455.7,286047004.0,N
1544936475.6,286047003.7,N
1544936495.4,286047001.8,N
1544936515.2,286047002.5,N
1544936535.1,286047002.3,N
1544936536.0,286047002.3,N
1544936555.8,286047001.9,N
1544936575.7,286047000.3,N
1544936595.5,286047000.3,N
1544936615.3,286047000.1,N
1544936635.2,286047002.2,N
1544936655.9,286047002.0,N
1544936675.7,286047001.6,N
1544936695.6,286047002.7,N
1544936715.4,286047002.4,N
1544936735.3,286047002.7,N
1544936755.1,286047001.8,N
1544936756.0,286047001.8,N
1544936775.8,286047002.0,N
1544936795.7,286047002.1,N
1544936815.5,286047001.6,N
1544936835.3,286047001.8,N
1544936855.2,286047001.5,N
1544936875.2,286047001.4,N
1544936895.0,286047001.3,N
1544936895.9,286047001.3,N
1544936915.8,286047001.6,N
1544936935.6,286047001.9,N
1544936955.4,286047002.8,Y
1544936975.3,286047001.0,P
1544936995.1,286046998.5,P
1544937015.8,286046999.5,N
1544937035.7,286046996.7,N
1544937055.5,286046996.6,N
1544937075.4,286046996.9,N
1544937095.2,286046997.0,N
1544937115.0,286046996.7,N
1544937115.9,286046996.7,N
1544937135.8,286047001.2,N
1544937155.6,286047000.5,N
1544937175.4,286047000.4,N
1544937195.3,286047000.1,N
1544937215.1,286047000.4,N
1544937235.9,286047001.6,N
1544937255.7,286047003.7,N
1544937275.5,286047004.1,N
1544937295.4,286047001.6,N
1544937315.2,286047002.6,N
1544937335.0,286046999.8,N
1544937335.9,286046999.8,N
1544937355.8,286047002.0,N
1544937375.6,286047002.0,N
1544937395.5,286047003.9,N
1544937415.3,286047003.4,N
1544937435.1,286047003.0,N
1544937455.9,286047006.0,N
1544937475.7,286047004.0,N
1544937495.5,286047001.4,N
1544937515.4,286047000.0,N
1544937535.2,286047000.5,N
1544937555.1,286047000.5,N
1544937556.0,286047000.5,N
1544937575.8,286047000.0,N
1544937595.4,286047001.0,N
1544937615.3,286047000.8,N
1544937635.1,286047000.9,N
1544937655.9,286046998.1,N
1544937675.6,286047001.2,N
1544937695.4,286046998.5,N
1544937715.3,286046996.7,N
1544937735.1,286046998.8,N
1544937755.8,286046998.6,N
1544937775.7,286046998.7,N
1544937795.5,286046998.2,N
1544937815.4,286047001.1,N
1544937835.2,286047000.6,N
1544937855.0,286047000.7,N
1544937855.9,286047000.7,N
1544937875.8,286047001.2,N
1544937895.6,286047000.6,N
1544937915.5,286046998.4,N
1544937935.3,286046999.1,N
1544937955.1,286046996.7,N
1544937975.9,286046998.9,N
1544937995.7,286047001.2,N
1544938015.6,286047001.2,N
1544938035.4,286047000.9,N
1544938055.2,286047000.9,N
1544938075.1,286047000.5,N
1544938076.0,286047000.5,N
1544938095.8,286047000.3,N
1544938115.7,286046999.8,N
1544938135.5,286047002.2,N
1544938155.3,286046999.9,N
1544938175.2,286047001.0,N
1544938195.0,286047001.2,N
1544938195.9,286047001.2,N
1544938215.8,286046998.5,N
1544938235.6,286047000.6,N
1544938255.4,286047001.2,N
1544938275.3,286046999.9,N
1544938295.1,286046999.9,N
1544938315.9,286046998.2,N
1544938335.7,286046998.2,N
1544938355.5,286046996.9,N
1544938375.4,286046997.2,N
1544938395.2,286046997.9,N
1544938415.1,286046996.7,N
1544938416.0,286046996.7,N
1544938435.8,286046995.4,N
1544938455.6,286046996.0,N
1544938475.5,286046994.2,Y
1544938495.3,286046995.2,P
1544938515.1,286046997.4,N
1544938535.9,286046996.5,N
1544938555.7,286046999.6,N
1544938575.6,286046997.1,N
1544938595.4,286046997.6,N
1544938615.2,286046995.4,Y
1544938635.1,286047001.2,P
1544938636.0,286047001.2,N
1544938655.8,286047001.0,N
1544938675.7,286047000.3,N
1544938695.5,286047000.9,N
1544938715.3,286046999.3,N
1544938735.1,286046999.5,N
1544938755.9,286046996.6,N
1544938775.7,286046999.2,N
1544938795.6,286046999.5,N
1544938815.4,286046998.9,N
1544938835.2,286046998.3,N
1544938855.1,286046998.3,N
1544938856.0,286046998.3,N
1544938875.8,286047001.1,N
1544938895.6,286047001.2,N
1544938915.5,286046997.0,N
1544938935.3,286046998.3,N
1544938955.2,286046999.5,N
1544938975.0,286046996.9,N
1544938975.9,286046996.9,N
1544938995.8,286046998.9,N
1544939015.6,286046998.3,N
1544939035.4,286046999.2,N
1544939055.3,286046998.5,N
1544939075.1,286046999.1,N
1544939095.8,286046999.3,N
1544939115.7,286046998.3,N
1544939135.5,286046999.0,N
1544939155.4,286046996.7,N
1544939175.2,286046996.7,N
1544939195.0,286046996.5,N
1544939195.9,286046996.5,N
1544939215.8,286046999.5,N
1544939235.6,286046999.1,N
1544939255.5,286046997.0,N
1544939275.3,286046997.4,N
1544939295.1,286046996.9,N
1544939315.9,286046998.0,N
1544939335.7,286046995.5,Y
1544939355.6,286046999.6,P
1544939375.4,286046996.5,P
1544939395.2,286046997.6,N
1544939415.1,286046995.4,Y
1544939416.0,286046995.4,P
1544939435.8,286046996.9,N
1544939455.7,286046995.6,P
1544939475.5,286046995.4,Y
1544939495.3,286046999.4,P
1544939515.2,286046998.9,N
1544939535.0,286046996.9,N
1544939535.9,286046996.9,N
1544939555.8,286046995.0,Y
1544939575.6,286046996.5,P
1544939595.4,286046996.5,P
1544939615.3,286046999.3,N
1544939635.1,286046998.6,N
1544939655.8,286046998.7,N
1544939675.7,286046999.4,N
1544939695.5,286046998.2,N
1544939715.4,286047001.2,N
1544939735.2,286046998.4,N
1544939755.0,286046999.4,N
1544939755.9,286046999.4,N
1544939775.8,286047000.9,N
1544939795.6,286047001.1,N
1544939815.5,286047000.1,N
1544939835.3,286047002.4,N
1544939855.1,286047002.7,N
1544939875.9,286047000.9,N
1544939895.7,286046999.8,N
1544939915.6,286047002.4,N
1544939935.4,286047000.2,N
1544939955.2,286047000.2,N
1544939975.1,286047000.0,N
1544939976.0,286047000.0,N
1544939995.8,286046999.7,N
